DC0VZ-6 Weather Reports


time (UTC)temp
F
wind
direction
speed
knots
gust
knots
rain 1hr
in
rain 24hr
in
rain mn
in
humidity
%
barometer
mb
20260506123611 63 337 2.6 3.5 0.00 0.00 0.00 50 974.3
20260506122610 63 135 2.6 1.7 0.00 0.00 0.00 50 974.3
20260506121610 63 247 2.6 0.0 0.00 0.00 0.00 51 974.5
20260506120610 62 180 2.6 7.0 0.00 0.00 0.00 51 974.5
20260506115610 61 135 2.6 3.5 0.00 0.00 0.00 53 974.6
20260506114610 63 157 1.7 5.2 0.00 0.00 0.00 53 974.6
20260506113610 64 67 2.6 0.9 0.00 0.00 0.00 53 974.6
20260506112610 62 157 2.6 9.6 0.00 0.00 0.00 53 974.6
20260506111609 65 247 2.6 2.6 0.00 0.00 0.00 55 974.6
20260506110609 64 225 0.9 5.2 0.00 0.00 0.00 54 974.6
20260506105610 65 202 2.6 4.3 0.00 0.00 0.00 56 974.8
20260506104609 63 202 1.7 3.5 0.00 0.00 0.00 56 974.8
20260506103609 63 247 2.6 4.3 0.00 0.00 0.00 56 974.6
20260506102609 63 337 2.6 3.5 0.00 0.00 0.00 56 974.6
20260506101609 62 247 2.6 5.2 0.00 0.00 0.00 56 974.5
20260506100609 62 225 1.7 0.0 0.00 0.00 0.00 56 974.5
20260506095609 62 135 1.7 2.6 0.00 0.00 0.00 56 974.6
20260506094609 61 225 1.7 0.9 0.00 0.00 0.00 57 974.6
20260506093614 64 315 1.7 2.6 0.00 0.00 0.00 58 974.5
20260506092614 63 247 2.6 3.5 0.00 0.00 0.00 57 974.5
20260506091614 61 225 1.7 1.7 0.00 0.00 0.00 57 974.4
20260506090614 60 180 1.7 3.5 0.00 0.00 0.00 58 974.4
20260506085614 59 112 1.7 1.7 0.00 0.00 0.00 58 974.1
20260506084614 58 180 1.7 6.1 0.00 0.00 0.00 58 974.1
20260506083614 58 247 0.9 0.0 0.00 0.00 0.00 58 973.9
20260506082614 58 202 0.9 0.0 0.00 0.00 0.00 58 973.9
20260506081613 57 157 0.9 2.6 0.00 0.00 0.00 58 973.9
20260506080613 57 157 1.7 0.9 0.00 0.00 0.00 58 973.9
20260506072613 57 180 1.7 3.5 0.00 0.00 0.00 57 973.8
20260506071613 57 225 1.7 1.7 0.00 0.00 0.00 57 973.6
20260506070613 56 180 0.9 0.0 0.00 0.00 0.00 57 973.6
20260506061612 54 180 0.9 3.5 0.00 0.00 0.00 58 973.5
20260506060612 54 135 0.0 0.0 0.00 0.00 0.00 57 973.5
20260506050612 53 157 0.0 0.0 0.00 0.00 0.00 57 973.2
20260506044612 52 315 0.9 0.0 0.00 0.00 0.00 57 973.3
20260506043611 52 315 0.0 2.6 0.00 0.00 0.00 57 973.4
20260506042611 51 247 0.0 0.0 0.00 0.00 0.00 57 973.4
20260506041611 50 225 0.0 0.0 0.00 0.00 0.00 57 973.4
20260506040611 50 202 0.0 0.0 0.00 0.00 0.00 57 973.4
20260506035611 50 202 0.0 0.0 0.00 0.00 0.00 57 973.6
20260506034611 50 157 0.0 0.0 0.00 0.00 0.00 57 973.6
20260506033611 50 225 0.0 0.0 0.00 0.00 0.00 57 973.6
20260506032611 51 180 0.0 0.0 0.00 0.00 0.00 57 973.6
20260506031611 51 247 0.0 0.0 0.00 0.00 0.00 57 973.5
20260506030611 51 180 0.0 2.6 0.00 0.00 0.00 57 973.5
20260506025610 52 225 0.0 0.0 0.00 0.00 0.00 56 973.7
20260506024611 52 315 0.9 0.0 0.00 0.00 0.00 56 973.7
20260506023610 52 180 0.9 0.0 0.00 0.00 0.00 56 973.5
20260506022610 53 135 0.9 1.7 0.00 0.00 0.00 56 973.5
20260506021610 53 157 2.6 7.8 0.00 0.00 0.00 56 973.8
20260506020610 53 225 0.9 1.7 0.00 0.00 0.00 56 973.8
20260506015610 53 180 0.9 1.7 0.00 0.00 0.00 56 973.8
20260506014610 53 157 0.0 0.0 0.00 0.00 0.00 56 973.8
20260506013610 54 157 0.9 0.0 0.00 0.00 0.00 56 973.9
20260506012610 54 202 0.9 0.0 0.00 0.00 0.00 56 973.9
20260506011611 53 135 0.0 0.0 0.00 0.00 0.00 56 974.1
20260506010610 54 180 0.9 1.7 0.00 0.00 0.00 56 974.1
20260506005610 55 157 0.0 0.0 0.00 0.00 0.00 56 974.3
20260506004609 55 202 0.9 2.6 0.00 0.00 0.00 55 974.3
20260506003609 55 225 0.9 1.7 0.00 0.00 0.00 55 974.4
20260506002609 56 225 0.9 0.0 0.00 0.00 0.00 55 974.4
20260506001609 56 247 1.7 3.5 0.00 0.00 0.00 55 974.8
20260506000609 56 157 1.7 0.9 0.00 0.00 0.00 55 974.8
20260505235609 56 247 1.7 3.5 0.00 0.00 0.00 55 974.8
20260505234609 56 270 1.7 0.9 0.00 0.00 0.00 54 974.8
20260505233614 56 247 2.6 6.1 0.00 0.00 0.00 54 975.1
20260505232614 56 202 0.9 5.2 0.00 0.00 0.00 54 975.1
20260505231614 55 247 0.0 0.9 0.00 0.00 0.00 55 975.1
20260505230614 54 180 0.0 0.0 0.00 0.00 0.00 55 975.1
20260505225614 54 247 0.0 0.0 0.00 0.00 0.00 55 975.0
20260505224613 54 157 0.0 0.0 0.00 0.00 0.00 55 975.0
20260505223613 54 180 0.0 0.0 0.00 0.00 0.00 55 975.4
20260505222613 54 180 0.0 0.0 0.00 0.00 0.00 55 975.4
20260505221613 54 247 0.0 0.0 0.00 0.00 0.00 55 975.6
20260505220613 54 202 0.0 0.0 0.00 0.00 0.00 55 975.6
20260505215613 54 157 0.0 0.0 0.00 0.00 0.00 55 975.8
20260505214613 54 180 0.0 0.0 0.00 0.00 0.00 55 975.8
20260505213613 54 270 0.0 0.0 0.00 0.00 0.00 54 976.0
20260505212613 54 202 0.0 0.0 0.00 0.00 0.00 54 976.0
20260505211613 54 180 0.0 0.0 0.00 0.00 0.00 54 975.9
20260505210613 54 180 0.0 0.0 0.00 0.00 0.00 54 975.9
20260505205613 55 157 0.0 0.0 0.00 0.00 0.00 54 976.0
20260505204613 55 180 0.0 0.0 0.00 0.00 0.00 54 976.0
20260505203613 55 180 0.0 0.0 0.00 0.00 0.00 54 975.9
20260505202612 56 157 0.0 0.0 0.00 0.00 0.00 52 975.9
20260505201612 56 202 0.0 0.0 0.00 0.00 0.00 52 975.8
20260505200612 56 270 0.0 0.0 0.00 0.00 0.00 52 975.8
20260505195612 56 225 0.0 0.0 0.00 0.00 0.00 52 975.8
20260505194612 56 270 0.0 0.0 0.00 0.00 0.00 52 975.8
20260505193612 56 112 0.0 0.0 0.00 0.00 0.00 52 975.7
20260505192612 57 180 0.0 0.0 0.00 0.00 0.00 52 975.7
20260505191612 57 180 0.0 0.0 0.00 0.00 0.00 52 975.4
20260505190612 58 180 0.0 0.0 0.00 0.00 0.00 51 975.4
20260505185612 58 157 0.0 0.0 0.00 0.00 0.00 51 975.4
20260505184612 58 202 0.0 0.0 0.00 0.00 0.00 51 975.4
20260505183612 59 135 0.0 0.0 0.00 0.00 0.00 51 975.5
20260505182611 59 135 0.0 0.0 0.00 0.00 0.00 51 975.5
20260505181612 59 157 0.0 0.0 0.00 0.00 0.00 51 975.6
20260505180611 59 157 0.0 0.0 0.00 0.00 0.00 51 975.6
20260505175611 60 90 0.0 0.0 0.00 0.00 0.00 50 975.6
20260505174611 60 135 0.0 0.0 0.00 0.00 0.00 50 975.6
20260505173611 60 135 0.0 0.0 0.00 0.00 0.00 50 975.4
20260505172611 60 135 0.0 0.0 0.00 0.00 0.00 50 975.4
20260505171611 61 135 0.0 0.0 0.00 0.00 0.00 49 975.2
20260505170611 61 67 0.0 0.0 0.00 0.00 0.00 49 975.2
20260505165611 61 337 0.0 0.0 0.00 0.00 0.00 49 975.5
20260505164611 61 22 0.0 0.0 0.00 0.00 0.00 49 975.5
20260505163610 61 67 0.0 0.0 0.00 0.00 0.00 49 975.6
20260505162610 61 22 0.0 0.0 0.00 0.00 0.00 49 975.6
20260505161610 62 45 0.0 0.0 0.00 0.00 0.00 49 975.8
20260505160610 62 22 0.0 0.0 0.00 0.00 0.00 49 975.8
20260505152610 63 22 0.0 0.0 0.00 0.00 0.00 48 976.1
20260505151610 62 45 0.0 0.0 0.00 0.00 0.00 49 976.1
20260505150610 61 315 0.0 0.0 0.00 0.00 0.00 48 976.1
20260505140610 61 337 0.0 0.0 0.00 0.00 0.00 48 976.4
20260505124614 63 247 0.0 0.0 0.00 0.00 0.00 47 976.9